STARLINK-32638

Last updated on Thu Jan 23 2025 00:02:04 GMT+0000 (Coordinated Universal Time)

1 62424U 24249R 25022.45781557 -.00004803 00000+0 -10765-3 0 9990 2 62424 43.0025 131.8573 0001083 274.3429 85.7304 15.40741045 4748
UTC large
Height (km)
Speed (km/s)
/
Latitude / Longitude
Inclination (degrees)
Orbital Period (minutes)
Azimuth
Elevation
Range (km)
Doppler Factor

Next 0 passes for location: London (51.5072 / 0.1276)

Sorry there are no passes over London.